Вернуться в каталог

COSMOS 2499 DEB

АктивенPO
NORAD 56574·DEBRIS·🇷🇺 Russia

Запущен May 23, 2014 с Plesetsk Cosmodrome

Loading…

Ближайшие Пролёты (ближайшие 24 часа)

TLE

УстаревающийSource: Space-Track

Эпоха: Sep 7, 2026, 02:09 UTC

1 56574U 14028BH  26250.08988039  .00006337  00000-0  18182-1 0  9992
2 56574  82.4122 177.1011 0227903  86.4268 276.2878 13.01578394171946

Отслеживайте COSMOS 2499 DEB в реальном времени с AllMySat

Download on the App Store